User: anonymous   Login
Location: Kalberh�ni
(46.4610°N, 7.2453°E)
Time: 21:59:38
(UTC+00:00)
Language:

OBJECT U - Orbit

View from above orbital plane
View from above orbital plane
View from above satellite
View from above satellite

Ground track
Ground track

The orbit data is extracted from the following two-line orbital elements,

1 47950U 21022U   22028.55752461  .00002052  00000-0  14285-3 0  9993
2 47950  97.5412 290.9488 0019457 266.6853  93.2148 15.06424244 46938
Epoch (UTC): 28 January 2022 13:22:50
Eccentricity: 0.0019457
inclination: 97.5412°
perigee height: 533 km
apogee height: 560 km
right ascension of ascending node: 290.9488°
argument of perigee: 266.6853°
revolutions per day: 15.06424244
mean anomaly at epoch: 93.2148°
orbit number at epoch: 4693

The dashed part of the orbit path shows where the satellite is in the earth's shadow,  

DLR